Regional Weather Roundup
Issued by NWS

Home | Current Version | Previous Version | Graphics & Text | Print | Product List | Glossary On
Versions: 1 2 3 4 5 6 7 8 9 10 11 12 13 14 15 16 17 18 19 20 21 22 23 24 25 26 27 28 29 30 31 32 33 34 35 36 37 38 39 40 41 42 43 44 45 46 47 48 49 50
000
ASUS43 KLOT 261308
RWRIL

ILLINOIS REGIONAL WEATHER ROUNDUP
NATIONAL WEATHER SERVICE CHICAGO/ROMEOVILLE IL
700 AM CST SUN FEB 26 2017

NOTE: "FAIR" INDICATES FEW OR NO CLOUDS BELOW 12,000 FEET WITH NO
SIGNIFICANT WEATHER AND/OR OBSTRUCTIONS TO VISIBILITY.

* THESE STATIONS ARE NOT UNDER NWS QUALITY CONTROL. THEY ALSO MAY NOT
  REPORT WEATHER SUCH AS PRECIPITATION OR FOG.

ILZ001-002-007-009-015-016-024-261400-
NORTHWEST ILLINOIS

CITY           SKY/WX    TMP DP  RH WIND       PRES   REMARKS
MOLINE         CLOUDY    32  17  54 S17G26    29.94S WCI  21
STERLING*      CLOUDY    30  19  63 VRB7      29.95F WCI  23
$$

ILZ003-004-008-010-011-017-018-261400-
NORTH CENTRAL ILLINOIS

CITY           SKY/WX    TMP DP  RH WIND       PRES   REMARKS
ROCKFORD       CLOUDY    29  19  66 S14       29.97F WCI  18
FREEPORT*      CLOUDY    28  19  71 S18       29.92F WCI  15
ROCHELLE*      CLOUDY    27  19  72 S15       29.97F WCI  16
DE KALB*       CLOUDY    26  20  78 S17       29.97F WCI  13
PERU*          CLOUDY    27  17  64 S12       30.01F WCI  17
$$

ILZ005-006-012>014-019>023-261400-
NORTHEAST ILLINOIS

CITY           SKY/WX    TMP DP  RH WIND       PRES   REMARKS
CHICAGO-OHARE  CLOUDY    27  19  72 S10       30.00F WCI  17
CHICAGO-MIDWAY CLOUDY    26  17  68 S10       30.02F WCI  16
AURORA         CLOUDY    27  18  69 S12       30.00F WCI  17
LANSING*       CLOUDY    24  21  87 S8        30.05S WCI  16
JOLIET*        CLOUDY    28  21  77 S5        30.04S WCI  22
WAUKEGAN       CLOUDY    26  18  71 S12       29.97F WCI  16
DUPAGE AIRPORT CLOUDY    26  19  74 S12       29.99F WCI  16
KANKAKEE*      CLOUDY    25  19  75 S9        30.07S WCI  16
WHEELING       CLOUDY    26  18  71 S10       30.01F WCI  16
MORRIS*        CLOUDY    26  20  79 S7        30.02F WCI  18
ROMEOVILLE*    CLOUDY    25  22  91 S9        30.02F WCI  15
NORTHERLY ISL    N/A     26  18  71 S13         N/A  WCI  15
$$

LMZ740>746-261400-
SOUTHERN LAKE MICHIGAN

STATION/POSITION SKY/WX   TEMP    WIND        PRES    VSBY  WAVE
                          AIR SEA DIR/SP/G                  HT/PER
                          (F)     (DEG/KT/KT) (MB)    (MI)  (FT/S)
HARRISON CRIB              29     190/ 15/ 18   N/A
BURNHAM HARBOR             27     180/  9/ 12   N/A
CALUMET HARBOR             25     170/ 11/ 14 1016.5F
BURNS HARBOR               24     180/ 10/ 16 1017.9S
MICHIGAN CITY              23     140/ 12/ 14   N/A
$$

ILZ025>027-034>036-040-047-049-050-058-095>099-261400-
WEST-CENTRAL ILLINOIS

CITY           SKY/WX    TMP DP  RH WIND       PRES   REMARKS
QUINCY         CLOUDY    31  17  56 S10       30.03S WCI  22
GALESBURG*     CLOUDY    29  19  66 S13G20    29.98S WCI  19
MACOMB*        CLOUDY    31  17  57 S18       30.03S WCI  19
JACKSONVILLE*  MOCLDY    29  16  59 S9        30.07S WCI  20
PITTSFIELD*    CLEAR     30  16  56 S8        30.06F WCI  22
$$

ILZ028>032-037-038-041>044-048-051>054-059>061-261400-
CENTRAL ILLINOIS

CITY           SKY/WX    TMP DP  RH WIND       PRES   REMARKS
PONTIAC        CLOUDY    28  19  71 S12       30.05F WCI  18
BLOOMINGTON    PTCLDY    24  17  74 S15       30.06S WCI  11
DECATUR        CLEAR     25  14  63 S15       30.09S WCI  13
PEORIA         MOCLDY    27  17  66 S10       30.04S WCI  17
LACON*         MOCLDY    29  16  57 S7        30.01F WCI  22
LINCOLN*       CLOUDY    26  18  72 S9        30.08R WCI  16
SPRINGFIELD    PTCLDY    30  15  53 S12       30.08R WCI  20
TAYLORVILLE    CLOUDY    26  17  69 S9        30.10R WCI  17
$$

ILZ033-039-045-046-055>057-062-063-261400-
EAST-CENTRAL ILLINOIS

CITY           SKY/WX    TMP DP  RH WIND       PRES   REMARKS
CHAMPAIGN      CLEAR     22  14  71 SE8       30.10R WCI  12
RANTOUL*       CLOUDY    24  18  79 S7        30.08F WCI  16
MATTOON        CLEAR     25  17  72 S10       30.12R WCI  15
PARIS*         PTCLDY    22  18  83 SE8       30.13F WCI  13
$$

ILZ079-100>102-261400-
SOUTHWEST ILLINOIS

CITY           SKY/WX    TMP DP  RH WIND       PRES   REMARKS
BELLEVILLE     CLEAR     24  18  79 SE5       30.12R WCI  18
CAHOKIA*       PTCLDY    29  13  51 S6        30.12S WCI  23
SPARTA*        CLEAR     26  15  62 SE5       30.15R WCI  21
$$

ILZ064>066-069>071-074>076-080>082-084>086-088>090-092>094-261400-
SOUTH-CENTRAL ILLINOIS

CITY           SKY/WX    TMP DP  RH WIND       PRES   REMARKS
CARBONDALE     CLEAR     24  16  71 S6        30.16S WCI  17
CAIRO*         CLEAR     29  20  69 SE8       30.17F WCI  21
EFFINGHAM*     CLEAR     26  18  73 SE5       30.17R WCI  20
MARION         CLEAR     27  18  69 S5        30.18R WCI  21
MT. VERNON     CLEAR     20  18  92 S3        30.17R
CENTRALIA*     CLEAR     28  19  69 SE8       30.14R WCI  20
SALEM*         CLEAR     28  15  58 SE5       30.14R WCI  22
METROPOLIS*    CLEAR     23  21  91 CALM      30.20S
$$

ILZ067-068-072-073-078-083-087-091-261400-
SOUTHEAST ILLINOIS

CITY           SKY/WX    TMP DP  RH WIND       PRES   REMARKS
LAWRENCEVILLE  PTCLDY    22  18  85 S7        30.18F WCI  13
FLORA*         CLEAR     22  18  83 S5        30.17S WCI  16
FAIRFIELD*     CLEAR     25  17  72 CALM      30.17R
HARRISBURG*    CLEAR     25  22  85 SE3       30.19S
ROBINSON*      CLEAR     22  17  81 S8        30.18F WCI  13
CARMI*         CLEAR     25  20  82 S6        30.19R WCI  18
$$

ABBREVIATIONS USED IN REMARKS
   TC - TEMPERATURE IN CELSIUS
  WCI - WIND CHILL INDEX
   HX - HEAT INDEX
  VSB - VISIBILITY
$$





USA.gov is the U.S. government's official web portal to all federal, state and local government web resources and services.